Time,TemperatureF,DewpointF,PressureIn,WindDirection,WindDirectionDegrees,WindSpeedMPH,WindSpeedGustMPH,Humidity,HourlyPrecipIn,Conditions,Clouds,dailyrainin,SoftwareType,DateUTC
2013-09-12 00:00:00,73.4,68.6,30.06,NNE,20,0.0,0.0,85,0.00,,,0.00,Wunderground v.1.15,2013-09-12 05:00:00,
2013-09-12 00:05:00,73.4,68.6,30.06,NNE,20,0.0,0.0,85,0.00,,,0.00,Wunderground v.1.15,2013-09-12 05:05:00,
2013-09-12 00:10:00,73.3,68.5,30.06,NNE,20,0.0,0.0,85,0.00,,,0.00,Wunderground v.1.15,2013-09-12 05:10:00,
2013-09-12 00:20:00,73.1,68.3,30.07,NNE,20,0.0,0.0,85,0.00,,,0.00,Wunderground v.1.15,2013-09-12 05:20:00,
2013-09-12 00:30:00,73.1,68.7,30.07,NNE,20,0.0,0.0,86,0.00,,,0.00,Wunderground v.1.15,2013-09-12 05:30:00,
2013-09-12 00:35:00,73.1,68.7,30.07,NNE,20,0.0,0.0,86,0.00,,,0.00,Wunderground v.1.15,2013-09-12 05:35:00,
2013-09-12 00:45:00,73.1,68.7,30.07,NNE,20,0.0,0.0,86,0.00,,,0.00,Wunderground v.1.15,2013-09-12 05:45:00,
2013-09-12 00:50:00,73.2,68.8,30.07,NNE,20,0.0,0.0,86,0.00,,,0.00,Wunderground v.1.15,2013-09-12 05:50:00,
2013-09-12 00:56:00,73.1,68.3,30.07,NNE,20,0.0,0.0,85,0.00,,,0.00,Wunderground v.1.15,2013-09-12 05:56:00,
2013-09-12 01:05:00,73.1,68.3,30.07,NNE,20,0.0,0.0,85,0.00,,,0.00,Wunderground v.1.15,2013-09-12 06:05:00,
2013-09-12 01:10:00,73.1,68.3,30.07,NNE,20,0.0,0.0,85,0.00,,,0.00,Wunderground v.1.15,2013-09-12 06:10:00,
2013-09-12 01:15:00,73.0,68.2,30.07,South,177,0.0,0.0,85,0.00,,,0.00,Wunderground v.1.15,2013-09-12 06:15:00,
2013-09-12 01:20:00,72.9,68.1,30.07,SSW,194,0.0,0.0,85,0.00,,,0.00,Wunderground v.1.15,2013-09-12 06:20:00,
2013-09-12 01:30:00,72.6,68.2,30.07,SSW,194,0.0,0.0,86,0.00,,,0.00,Wunderground v.1.15,2013-09-12 06:30:00,
2013-09-12 01:35:00,72.5,68.4,30.07,SSW,196,0.0,0.0,87,0.00,,,0.00,Wunderground v.1.15,2013-09-12 06:35:00,
2013-09-12 01:41:00,72.4,68.3,30.07,SSW,195,0.0,0.0,87,0.00,,,0.00,Wunderground v.1.15,2013-09-12 06:41:00,
2013-09-12 01:50:00,72.1,68.3,30.08,SSW,201,0.0,0.0,88,0.00,,,0.00,Wunderground v.1.15,2013-09-12 06:50:00,
2013-09-12 01:56:00,72.0,68.2,30.08,South,188,0.0,0.0,88,0.00,,,0.00,Wunderground v.1.15,2013-09-12 06:56:00,
2013-09-12 02:05:00,71.9,68.5,30.08,South,190,0.0,0.0,89,0.00,,,0.00,Wunderground v.1.15,2013-09-12 07:05:00,
2013-09-12 02:10:00,71.9,68.5,30.08,South,190,0.0,0.0,89,0.00,,,0.00,Wunderground v.1.15,2013-09-12 07:10:00,
2013-09-12 02:20:00,71.8,68.4,30.08,South,190,0.0,0.0,89,0.00,,,0.00,Wunderground v.1.15,2013-09-12 07:20:00,
2013-09-12 02:25:00,71.7,68.3,30.08,South,188,0.0,0.0,89,0.00,,,0.00,Wunderground v.1.15,2013-09-12 07:25:00,
2013-09-12 02:35:00,71.6,68.2,30.08,South,190,0.0,0.0,89,0.00,,,0.00,Wunderground v.1.15,2013-09-12 07:35:00,
2013-09-12 02:45:00,71.6,67.9,30.08,SSW,204,0.0,0.0,88,0.00,,,0.00,Wunderground v.1.15,2013-09-12 07:45:00,
2013-09-12 02:55:00,71.6,67.9,30.08,SSW,203,0.0,0.0,88,0.00,,,0.00,Wunderground v.1.15,2013-09-12 07:55:00,
2013-09-12 03:00:00,71.6,67.9,30.08,SSE,158,0.0,0.0,88,0.00,,,0.00,Wunderground v.1.15,2013-09-12 08:00:00,
2013-09-12 03:10:00,71.5,68.1,30.08,SSE,158,0.0,0.0,89,0.00,,,0.00,Wunderground v.1.15,2013-09-12 08:10:00,
2013-09-12 03:20:00,71.4,68.0,30.08,SSE,159,0.0,0.0,89,0.00,,,0.00,Wunderground v.1.15,2013-09-12 08:20:00,
2013-09-12 03:30:00,71.2,67.8,30.08,South,183,0.0,0.0,89,0.00,,,0.00,Wunderground v.1.15,2013-09-12 08:30:00,
2013-09-12 03:45:00,70.9,67.5,30.08,SSW,194,0.0,1.0,89,0.00,,,0.00,Wunderground v.1.15,2013-09-12 08:45:00,
2013-09-12 03:50:00,70.8,67.4,30.08,SSW,204,0.0,1.0,89,0.00,,,0.00,Wunderground v.1.15,2013-09-12 08:50:00,
2013-09-12 04:00:00,70.6,67.5,30.08,SSW,193,0.0,0.0,90,0.00,,,0.00,Wunderground v.1.15,2013-09-12 09:00:00,
2013-09-12 04:05:00,70.5,67.4,30.08,SSW,193,0.0,0.0,90,0.00,,,0.00,Wunderground v.1.15,2013-09-12 09:05:00,
2013-09-12 04:10:00,70.4,67.3,30.08,SSW,193,0.0,0.0,90,0.00,,,0.00,Wunderground v.1.15,2013-09-12 09:10:00,
2013-09-12 04:20:00,70.2,67.1,30.07,SSW,193,0.0,0.0,90,0.00,,,0.00,Wunderground v.1.15,2013-09-12 09:20:00,
2013-09-12 04:25:00,70.1,67.0,30.07,SSW,193,0.0,0.0,90,0.00,,,0.00,Wunderground v.1.15,2013-09-12 09:25:00,
2013-09-12 04:35:00,70.0,67.3,30.07,SSW,193,0.0,0.0,91,0.00,,,0.00,Wunderground v.1.15,2013-09-12 09:35:00,
2013-09-12 04:45:00,69.9,67.2,30.08,SSW,193,0.0,0.0,91,0.00,,,0.00,Wunderground v.1.15,2013-09-12 09:45:00,
2013-09-12 04:50:00,69.8,67.1,30.08,SSW,212,0.0,0.0,91,0.00,,,0.00,Wunderground v.1.15,2013-09-12 09:50:00,
2013-09-12 05:00:00,69.6,66.9,30.08,SSW,211,0.0,0.0,91,0.00,,,0.00,Wunderground v.1.15,2013-09-12 10:00:00,
2013-09-12 05:10:00,69.6,66.9,30.09,WNW,284,0.0,0.0,91,0.00,,,0.00,Wunderground v.1.15,2013-09-12 10:10:00,
2013-09-12 05:20:00,69.6,66.9,30.09,WNW,284,0.0,0.0,91,0.00,,,0.00,Wunderground v.1.15,2013-09-12 10:20:00,
2013-09-12 05:25:00,69.5,66.8,30.09,WNW,284,0.0,0.0,91,0.00,,,0.00,Wunderground v.1.15,2013-09-12 10:25:00,
2013-09-12 05:35:00,69.4,66.7,30.09,WNW,284,0.0,0.0,91,0.00,,,0.00,Wunderground v.1.15,2013-09-12 10:35:00,
2013-09-12 05:40:00,69.3,66.6,30.09,WNW,284,0.0,0.0,91,0.00,,,0.00,Wunderground v.1.15,2013-09-12 10:40:00,
2013-09-12 05:50:00,69.1,66.4,30.09,WNW,284,0.0,0.0,91,0.00,,,0.00,Wunderground v.1.15,2013-09-12 10:50:00,
2013-09-12 05:55:00,69.0,65.9,30.08,NW,326,0.0,0.0,90,0.00,,,0.00,Wunderground v.1.15,2013-09-12 10:55:00,
2013-09-12 06:00:00,68.9,65.5,30.09,NW,326,0.0,0.0,89,0.00,,,0.00,Wunderground v.1.15,2013-09-12 11:00:00,
2013-09-12 06:10:00,68.7,63.7,30.09,NW,326,0.0,0.0,84,0.00,,,0.00,Wunderground v.1.15,2013-09-12 11:10:00,
2013-09-12 06:20:00,68.8,63.4,30.10,NW,326,0.0,0.0,83,0.00,,,0.00,Wunderground v.1.15,2013-09-12 11:20:00,
2013-09-12 06:25:00,68.7,63.0,30.09,NW,326,0.0,0.0,82,0.00,,,0.00,Wunderground v.1.15,2013-09-12 11:25:00,
2013-09-12 06:35:00,68.5,62.8,30.10,NW,326,0.0,0.0,82,0.00,,,0.00,Wunderground v.1.15,2013-09-12 11:35:00,
2013-09-12 06:45:00,68.2,62.5,30.10,NW,326,0.0,0.0,82,0.00,,,0.00,Wunderground v.1.15,2013-09-12 11:45:00,
2013-09-12 06:50:00,68.0,62.3,30.10,NW,326,0.0,0.0,82,0.00,,,0.00,Wunderground v.1.15,2013-09-12 11:50:00,
2013-09-12 06:56:00,67.8,62.1,30.10,NW,326,0.0,0.0,82,0.00,,,0.00,Wunderground v.1.15,2013-09-12 11:56:00,
2013-09-12 07:05:00,67.4,61.4,30.10,NW,326,0.0,0.0,81,0.00,,,0.00,Wunderground v.1.15,2013-09-12 12:05:00,
2013-09-12 07:11:00,67.2,60.8,30.11,NW,326,0.0,0.0,80,0.00,,,0.00,Wunderground v.1.15,2013-09-12 12:11:00,
2013-09-12 07:20:00,67.0,59.9,30.11,NW,326,0.0,0.0,78,0.00,,,0.00,Wunderground v.1.15,2013-09-12 12:20:00,
2013-09-12 07:26:00,66.9,59.5,30.11,NNW,327,0.0,0.0,77,0.00,,,0.00,Wunderground v.1.15,2013-09-12 12:26:00,
2013-09-12 07:35:00,66.7,58.5,30.11,NNW,330,0.0,0.0,75,0.00,,,0.00,Wunderground v.1.15,2013-09-12 12:35:00,
2013-09-12 07:41:00,66.6,58.4,30.12,NNW,330,0.0,0.0,75,0.00,,,0.00,Wunderground v.1.15,2013-09-12 12:41:00,
2013-09-12 07:50:00,66.5,58.0,30.12,NNW,330,0.0,0.0,74,0.00,,,0.00,Wunderground v.1.15,2013-09-12 12:50:00,
2013-09-12 07:55:00,66.6,58.4,30.13,NNW,337,0.0,0.0,75,0.00,,,0.00,Wunderground v.1.15,2013-09-12 12:55:00,
2013-09-12 08:00:00,66.7,58.5,30.12,NNW,338,0.0,0.0,75,0.00,,,0.00,Wunderground v.1.15,2013-09-12 13:00:00,
2013-09-12 08:05:00,66.7,58.5,30.13,North,1,0.0,0.0,75,0.00,,,0.00,Wunderground v.1.15,2013-09-12 13:05:00,
2013-09-12 08:10:00,66.6,58.8,30.13,NW,326,0.0,0.0,76,0.00,,,0.00,Wunderground v.1.15,2013-09-12 13:10:00,
2013-09-12 08:20:00,66.4,58.6,30.13,NNW,343,0.0,0.0,76,0.00,,,0.00,Wunderground v.1.15,2013-09-12 13:20:00,
2013-09-12 08:25:00,66.4,58.6,30.14,North,352,0.0,0.0,76,0.00,,,0.00,Wunderground v.1.15,2013-09-12 13:25:00,
2013-09-12 08:35:00,66.5,58.7,30.14,NNE,12,0.0,0.0,76,0.00,,,0.00,Wunderground v.1.15,2013-09-12 13:35:00,
2013-09-12 08:41:00,66.5,58.7,30.14,North,11,0.0,0.0,76,0.00,,,0.00,Wunderground v.1.15,2013-09-12 13:41:00,
2013-09-12 08:50:00,66.6,58.1,30.14,NNE,33,0.0,1.0,74,0.00,,,0.00,Wunderground v.1.15,2013-09-12 13:50:00,
2013-09-12 08:55:00,66.7,58.5,30.14,NE,34,0.0,0.0,75,0.00,,,0.00,Wunderground v.1.15,2013-09-12 13:55:00,
2013-09-12 09:05:00,66.9,57.2,30.14,NNE,19,0.0,1.0,71,0.00,,,0.00,Wunderground v.1.15,2013-09-12 14:05:00,
2013-09-12 09:15:00,67.5,57.0,30.14,North,1,0.0,0.0,69,0.00,,,0.00,Wunderground v.1.15,2013-09-12 14:15:00,
2013-09-12 09:20:00,67.6,56.2,30.15,North,6,0.0,0.0,67,0.00,,,0.00,Wunderground v.1.15,2013-09-12 14:20:00,
2013-09-12 09:26:00,67.8,56.0,30.15,NNE,19,0.0,0.0,66,0.00,,,0.00,Wunderground v.1.15,2013-09-12 14:26:00,
2013-09-12 09:35:00,68.1,56.7,30.15,ENE,66,0.0,1.0,67,0.00,,,0.00,Wunderground v.1.15,2013-09-12 14:35:00,
2013-09-12 09:40:00,68.4,56.6,30.16,ENE,66,0.0,0.0,66,0.00,,,0.00,Wunderground v.1.15,2013-09-12 14:40:00,
2013-09-12 09:50:00,68.8,57.0,30.16,ENE,58,0.0,0.0,66,0.00,,,0.00,Wunderground v.1.15,2013-09-12 14:50:00,
2013-09-12 09:55:00,69.2,56.9,30.16,North,352,0.0,0.0,65,0.00,,,0.00,Wunderground v.1.15,2013-09-12 14:55:00,
2013-09-12 10:05:00,69.6,57.7,30.17,WNW,293,0.0,0.0,66,0.00,,,0.00,Wunderground v.1.15,2013-09-12 15:05:00,
2013-09-12 10:10:00,69.7,57.4,30.17,WNW,293,0.0,0.0,65,0.00,,,0.00,Wunderground v.1.15,2013-09-12 15:10:00,
2013-09-12 10:16:00,69.8,57.9,30.17,NNW,339,0.0,0.0,66,0.00,,,0.00,Wunderground v.1.15,2013-09-12 15:16:00,
2013-09-12 10:25:00,70.0,57.3,30.17,NNW,343,0.0,1.0,64,0.00,,,0.00,Wunderground v.1.15,2013-09-12 15:25:00,
2013-09-12 10:31:00,70.2,57.9,30.17,South,187,0.0,0.0,65,0.00,,,0.00,Wunderground v.1.15,2013-09-12 15:31:00,
2013-09-12 10:40:00,70.6,57.4,30.17,NNW,340,0.0,1.0,63,0.00,,,0.00,Wunderground v.1.15,2013-09-12 15:40:00,
2013-09-12 10:50:00,70.9,57.2,30.18,NW,314,0.0,1.0,62,0.00,,,0.00,Wunderground v.1.15,2013-09-12 15:50:00,
2013-09-12 10:55:00,71.1,57.0,30.18,NE,51,0.0,1.0,61,0.00,,,0.00,Wunderground v.1.15,2013-09-12 15:55:00,
2013-09-12 11:01:00,71.3,57.2,30.18,NE,53,0.0,0.0,61,0.00,,,0.00,Wunderground v.1.15,2013-09-12 16:01:00,
2013-09-12 11:10:00,71.7,57.1,30.18,NE,43,0.0,0.0,60,0.00,,,0.00,Wunderground v.1.15,2013-09-12 16:10:00,
2013-09-12 11:16:00,72.0,57.8,30.18,NE,43,0.0,0.0,61,0.00,,,0.00,Wunderground v.1.15,2013-09-12 16:16:00,
2013-09-12 11:25:00,72.2,58.0,30.18,NNW,335,0.0,0.0,61,0.00,,,0.00,Wunderground v.1.15,2013-09-12 16:25:00,
2013-09-12 11:35:00,72.8,56.7,30.18,NNE,18,0.0,0.0,57,0.00,,,0.00,Wunderground v.1.15,2013-09-12 16:35:00,
2013-09-12 11:46:00,73.2,56.1,30.18,ENE,73,0.0,0.0,55,0.00,,,0.00,Wunderground v.1.15,2013-09-12 16:46:00,
2013-09-12 11:55:00,73.6,55.4,30.18,NNE,13,0.0,0.0,53,0.00,,,0.00,Wunderground v.1.15,2013-09-12 16:55:00,
2013-09-12 12:01:00,73.6,55.4,30.18,North,354,1.0,1.0,53,0.00,,,0.00,Wunderground v.1.15,2013-09-12 17:01:00,
2013-09-12 12:10:00,74.1,56.4,30.18,ENE,77,0.0,1.0,54,0.00,,,0.00,Wunderground v.1.15,2013-09-12 17:10:00,
2013-09-12 12:16:00,74.0,55.8,30.18,NNE,16,0.0,1.0,53,0.00,,,0.00,Wunderground v.1.15,2013-09-12 17:16:00,
2013-09-12 12:25:00,74.3,56.1,30.18,NNE,20,0.0,0.0,53,0.00,,,0.00,Wunderground v.1.15,2013-09-12 17:25:00,
2013-09-12 12:35:00,74.6,56.9,30.18,NNW,329,1.0,3.0,54,0.00,,,0.00,Wunderground v.1.15,2013-09-12 17:35:00,
2013-09-12 12:40:00,74.9,55.6,30.18,NW,325,1.0,1.0,51,0.00,,,0.00,Wunderground v.1.15,2013-09-12 17:40:00,
2013-09-12 12:45:00,75.1,55.2,30.18,NNE,26,1.0,1.0,50,0.00,,,0.00,Wunderground v.1.15,2013-09-12 17:45:00,
2013-09-12 12:55:00,75.7,56.3,30.17,East,80,0.0,0.0,51,0.00,,,0.00,Wunderground v.1.15,2013-09-12 17:55:00,
2013-09-12 13:05:00,76.1,54.4,30.17,NNE,14,0.0,1.0,47,0.00,,,0.00,Wunderground v.1.15,2013-09-12 18:05:00,
2013-09-12 13:10:00,76.3,55.2,30.17,East,84,1.0,1.0,48,0.00,,,0.00,Wunderground v.1.15,2013-09-12 18:10:00,
2013-09-12 13:20:00,76.7,55.0,30.17,NW,304,0.0,0.0,47,0.00,,,0.00,Wunderground v.1.15,2013-09-12 18:20:00,
2013-09-12 13:30:00,77.2,54.2,30.17,NW,315,1.0,1.0,45,0.00,,,0.00,Wunderground v.1.15,2013-09-12 18:30:00,
2013-09-12 13:35:00,77.3,55.5,30.17,North,359,1.0,1.0,47,0.00,,,0.00,Wunderground v.1.15,2013-09-12 18:35:00,
2013-09-12 13:46:00,77.5,54.5,30.16,NW,323,1.0,1.0,45,0.00,,,0.00,Wunderground v.1.15,2013-09-12 18:46:00,
2013-09-12 13:55:00,77.7,55.3,30.16,East,80,1.0,2.0,46,0.00,,,0.00,Wunderground v.1.15,2013-09-12 18:55:00,
2013-09-12 14:01:00,78.3,58.1,30.16,NW,323,1.0,1.0,50,0.00,,,0.00,Wunderground v.1.15,2013-09-12 19:01:00,
2013-09-12 14:10:00,79.0,55.8,30.16,WNW,297,0.0,0.0,45,0.00,,,0.00,Wunderground v.1.15,2013-09-12 19:10:00,
2013-09-12 14:16:00,78.9,54.5,30.15,NW,316,1.0,1.0,43,0.00,,,0.00,Wunderground v.1.15,2013-09-12 19:16:00,
2013-09-12 14:25:00,79.6,55.8,30.15,North,10,0.0,1.0,44,0.00,,,0.00,Wunderground v.1.15,2013-09-12 19:25:00,
2013-09-12 14:30:00,79.8,55.9,30.15,NNE,20,1.0,1.0,44,0.00,,,0.00,Wunderground v.1.15,2013-09-12 19:30:00,
2013-09-12 14:40:00,79.7,55.2,30.14,North,4,0.0,2.0,43,0.00,,,0.00,Wunderground v.1.15,2013-09-12 19:40:00,
2013-09-12 14:50:00,80.0,55.5,30.14,ENE,74,1.0,1.0,43,0.00,,,0.00,Wunderground v.1.15,2013-09-12 19:50:00,
2013-09-12 14:55:00,80.1,55.6,30.14,NW,316,1.0,1.0,43,0.00,,,0.00,Wunderground v.1.15,2013-09-12 19:55:00,
2013-09-12 15:01:00,80.5,54.6,30.14,NW,323,1.0,2.0,41,0.00,,,0.00,Wunderground v.1.15,2013-09-12 20:01:00,
2013-09-12 15:10:00,79.7,52.5,30.14,NW,304,2.0,2.0,39,0.00,,,0.00,Wunderground v.1.15,2013-09-12 20:10:00,
2013-09-12 15:16:00,79.8,54.7,30.14,NNW,340,1.0,2.0,42,0.00,,,0.00,Wunderground v.1.15,2013-09-12 20:16:00,
2013-09-12 15:25:00,79.9,55.4,30.13,NNE,25,1.0,3.0,43,0.00,,,0.00,Wunderground v.1.15,2013-09-12 20:25:00,
2013-09-12 15:31:00,80.1,54.3,30.13,North,9,1.0,1.0,41,0.00,,,0.00,Wunderground v.1.15,2013-09-12 20:31:00,
2013-09-12 15:40:00,80.4,53.9,30.13,NNW,329,0.0,0.0,40,0.00,,,0.00,Wunderground v.1.15,2013-09-12 20:40:00,
2013-09-12 15:46:00,80.3,53.8,30.13,NNW,342,1.0,1.0,40,0.00,,,0.00,Wunderground v.1.15,2013-09-12 20:46:00,
2013-09-12 15:55:00,80.0,53.5,30.13,NE,54,1.0,1.0,40,0.00,,,0.00,Wunderground v.1.15,2013-09-12 20:55:00,
2013-09-12 16:01:00,80.1,54.3,30.12,ENE,57,0.0,0.0,41,0.00,,,0.00,Wunderground v.1.15,2013-09-12 21:01:00,
2013-09-12 16:10:00,80.3,54.5,30.12,NNW,328,0.0,0.0,41,0.00,,,0.00,Wunderground v.1.15,2013-09-12 21:10:00,
2013-09-12 16:16:00,80.5,55.3,30.12,NNW,337,0.0,1.0,42,0.00,,,0.00,Wunderground v.1.15,2013-09-12 21:16:00,
2013-09-12 16:25:00,80.1,55.6,30.12,North,353,0.0,0.0,43,0.00,,,0.00,Wunderground v.1.15,2013-09-12 21:25:00,
2013-09-12 16:31:00,79.9,53.4,30.11,NE,41,0.0,0.0,40,0.00,,,0.00,Wunderground v.1.15,2013-09-12 21:31:00,
2013-09-12 16:40:00,79.1,53.4,30.12,NNE,27,0.0,0.0,41,0.00,,,0.00,Wunderground v.1.15,2013-09-12 21:40:00,
2013-09-12 16:46:00,78.8,53.1,30.12,NNW,347,0.0,0.0,41,0.00,,,0.00,Wunderground v.1.15,2013-09-12 21:46:00,
2013-09-12 16:55:00,78.4,53.4,30.11,WNW,301,0.0,1.0,42,0.00,,,0.00,Wunderground v.1.15,2013-09-12 21:55:00,
2013-09-12 17:00:00,78.2,51.2,30.12,NNE,28,0.0,0.0,39,0.00,,,0.00,Wunderground v.1.15,2013-09-12 22:00:00,
2013-09-12 17:10:00,78.1,53.1,30.11,NNE,27,0.0,0.0,42,0.00,,,0.00,Wunderground v.1.15,2013-09-12 22:10:00,
2013-09-12 17:15:00,77.9,52.3,30.11,NW,309,0.0,0.0,41,0.00,,,0.00,Wunderground v.1.15,2013-09-12 22:15:00,
2013-09-12 17:25:00,77.6,52.0,30.11,NNW,336,0.0,1.0,41,0.00,,,0.00,Wunderground v.1.15,2013-09-12 22:25:00,
2013-09-12 17:35:00,77.6,52.0,30.11,North,359,0.0,0.0,41,0.00,,,0.00,Wunderground v.1.15,2013-09-12 22:35:00,
2013-09-12 17:40:00,77.5,51.9,30.11,North,355,0.0,0.0,41,0.00,,,0.00,Wunderground v.1.15,2013-09-12 22:40:00,
2013-09-12 17:55:00,77.2,51.7,30.11,WNW,297,0.0,0.0,41,0.00,,,0.00,Wunderground v.1.15,2013-09-12 22:55:00,
2013-09-12 18:00:00,77.0,53.4,30.12,NW,319,0.0,0.0,44,0.00,,,0.00,Wunderground v.1.15,2013-09-12 23:00:00,
2013-09-12 18:05:00,76.7,52.5,30.12,NW,319,0.0,0.0,43,0.00,,,0.00,Wunderground v.1.15,2013-09-12 23:05:00,
2013-09-12 18:10:00,76.5,51.7,30.12,NW,319,0.0,0.0,42,0.00,,,0.00,Wunderground v.1.15,2013-09-12 23:10:00,
2013-09-12 18:20:00,76.1,51.3,30.12,NW,319,0.0,0.0,42,0.00,,,0.00,Wunderground v.1.15,2013-09-12 23:20:00,
2013-09-12 18:30:00,75.5,52.1,30.12,NW,319,0.0,0.0,44,0.00,,,0.00,Wunderground v.1.15,2013-09-12 23:30:00,
2013-09-12 18:40:00,74.8,52.0,30.12,NW,319,0.0,0.0,45,0.00,,,0.00,Wunderground v.1.15,2013-09-12 23:40:00,
2013-09-12 18:50:00,74.3,52.2,30.13,NW,319,0.0,0.0,46,0.00,,,0.00,Wunderground v.1.15,2013-09-12 23:50:00,
2013-09-12 18:55:00,74.2,52.1,30.12,NW,319,0.0,0.0,46,0.00,,,0.00,Wunderground v.1.15,2013-09-12 23:55:00,
2013-09-12 19:05:00,73.9,53.5,30.12,NW,319,0.0,0.0,49,0.00,,,0.00,Wunderground v.1.15,2013-09-13 00:05:00,
2013-09-12 19:15:00,73.2,51.8,30.12,NW,319,0.0,0.0,47,0.00,,,0.00,Wunderground v.1.15,2013-09-13 00:15:00,
2013-09-12 19:20:00,72.8,52.0,30.12,NW,319,0.0,0.0,48,0.00,,,0.00,Wunderground v.1.15,2013-09-13 00:20:00,
2013-09-12 19:25:00,72.4,51.6,30.12,NW,319,0.0,0.0,48,0.00,,,0.00,Wunderground v.1.15,2013-09-13 00:25:00,
2013-09-12 19:35:00,71.5,51.3,30.13,NW,319,0.0,0.0,49,0.00,,,0.00,Wunderground v.1.15,2013-09-13 00:35:00,
2013-09-12 19:45:00,70.8,52.3,30.13,NW,319,0.0,0.0,52,0.00,,,0.00,Wunderground v.1.15,2013-09-13 00:45:00,
2013-09-12 19:51:00,70.5,52.5,30.12,NW,319,0.0,0.0,53,0.00,,,0.00,Wunderground v.1.15,2013-09-13 00:51:00,
2013-09-12 20:00:00,69.8,51.9,30.13,NW,319,0.0,0.0,53,0.00,,,0.00,Wunderground v.1.15,2013-09-13 01:00:00,
2013-09-12 20:06:00,69.6,52.2,30.13,NW,319,0.0,0.0,54,0.00,,,0.00,Wunderground v.1.15,2013-09-13 01:06:00,
2013-09-12 20:15:00,69.1,52.7,30.13,NW,319,0.0,0.0,56,0.00,,,0.00,Wunderground v.1.15,2013-09-13 01:15:00,
2013-09-12 20:21:00,68.8,52.9,30.13,NW,319,0.0,0.0,57,0.00,,,0.00,Wunderground v.1.15,2013-09-13 01:21:00,
2013-09-12 20:30:00,68.5,52.7,30.14,NW,319,0.0,0.0,57,0.00,,,0.00,Wunderground v.1.15,2013-09-13 01:30:00,
2013-09-12 20:36:00,68.3,52.5,30.14,NW,319,0.0,0.0,57,0.00,,,0.00,Wunderground v.1.15,2013-09-13 01:36:00,
2013-09-12 20:45:00,68.0,53.6,30.15,NW,319,0.0,0.0,60,0.00,,,0.00,Wunderground v.1.15,2013-09-13 01:45:00,
2013-09-12 20:51:00,67.8,52.9,30.15,NW,319,0.0,0.0,59,0.00,,,0.00,Wunderground v.1.15,2013-09-13 01:51:00,
2013-09-12 21:00:00,67.3,53.4,30.15,NW,319,0.0,0.0,61,0.00,,,0.00,Wunderground v.1.15,2013-09-13 02:00:00,
2013-09-12 21:05:00,67.1,53.2,30.15,NW,319,0.0,0.0,61,0.00,,,0.00,Wunderground v.1.15,2013-09-13 02:05:00,
2013-09-12 21:15:00,66.7,52.8,30.15,NW,319,0.0,0.0,61,0.00,,,0.00,Wunderground v.1.15,2013-09-13 02:15:00,
2013-09-12 21:21:00,66.6,53.2,30.15,NW,319,0.0,0.0,62,0.00,,,0.00,Wunderground v.1.15,2013-09-13 02:21:00,
2013-09-12 21:30:00,66.4,53.4,30.15,NW,320,0.0,0.0,63,0.00,,,0.00,Wunderground v.1.15,2013-09-13 02:30:00,
2013-09-12 21:36:00,66.4,53.8,30.15,NW,320,0.0,0.0,64,0.00,,,0.00,Wunderground v.1.15,2013-09-13 02:36:00,
2013-09-12 21:45:00,66.2,53.7,30.15,NW,320,0.0,0.0,64,0.00,,,0.00,Wunderground v.1.15,2013-09-13 02:45:00,
2013-09-12 21:51:00,66.2,53.7,30.15,NW,320,0.0,0.0,64,0.00,,,0.00,Wunderground v.1.15,2013-09-13 02:51:00,
2013-09-12 22:00:00,66.1,53.1,30.15,NW,320,0.0,0.0,63,0.00,,,0.00,Wunderground v.1.15,2013-09-13 03:00:00,
2013-09-12 22:06:00,66.1,53.1,30.15,NW,321,0.0,0.0,63,0.00,,,0.00,Wunderground v.1.15,2013-09-13 03:06:00,
2013-09-12 22:15:00,66.2,53.7,30.15,NW,320,0.0,0.0,64,0.00,,,0.00,Wunderground v.1.15,2013-09-13 03:15:00,
2013-09-12 22:20:00,66.1,53.6,30.15,NW,320,0.0,0.0,64,0.00,,,0.00,Wunderground v.1.15,2013-09-13 03:20:00,
2013-09-12 22:25:00,66.0,53.5,30.15,NW,320,0.0,0.0,64,0.00,,,0.00,Wunderground v.1.15,2013-09-13 03:25:00,
2013-09-12 22:35:00,65.8,53.7,30.15,NW,320,0.0,0.0,65,0.00,,,0.00,Wunderground v.1.15,2013-09-13 03:35:00,
2013-09-12 22:45:00,65.5,53.8,30.15,NW,321,0.0,0.0,66,0.00,,,0.00,Wunderground v.1.15,2013-09-13 03:45:00,
2013-09-12 22:50:00,65.4,53.7,30.15,NW,321,0.0,0.0,66,0.00,,,0.00,Wunderground v.1.15,2013-09-13 03:50:00,
2013-09-12 22:55:00,65.3,54.1,30.16,NW,320,0.0,0.0,67,0.00,,,0.00,Wunderground v.1.15,2013-09-13 03:55:00,
2013-09-12 23:00:00,65.1,53.0,30.15,NW,320,0.0,0.0,65,0.00,,,0.00,Wunderground v.1.15,2013-09-13 04:00:00,
2013-09-12 23:05:00,64.9,53.3,30.15,NW,321,0.0,0.0,66,0.00,,,0.00,Wunderground v.1.15,2013-09-13 04:05:00,
2013-09-12 23:10:00,64.9,53.7,30.16,NW,321,0.0,0.0,67,0.00,,,0.00,Wunderground v.1.15,2013-09-13 04:10:00,
2013-09-12 23:20:00,64.5,52.9,30.16,NW,321,0.0,0.0,66,0.00,,,0.00,Wunderground v.1.15,2013-09-13 04:20:00,
2013-09-12 23:25:00,64.3,52.7,30.16,NW,321,0.0,0.0,66,0.00,,,0.00,Wunderground v.1.15,2013-09-13 04:25:00,
2013-09-12 23:30:00,64.1,52.9,30.16,NW,320,0.0,0.0,67,0.00,,,0.00,Wunderground v.1.15,2013-09-13 04:30:00,
2013-09-12 23:35:00,64.0,53.2,30.16,NW,320,0.0,0.0,68,0.00,,,0.00,Wunderground v.1.15,2013-09-13 04:35:00,
2013-09-12 23:40:00,63.8,53.0,30.16,NW,320,0.0,0.0,68,0.00,,,0.00,Wunderground v.1.15,2013-09-13 04:40:00,
2013-09-12 23:50:00,63.5,52.7,30.16,NW,320,0.0,0.0,68,0.00,,,0.00,Wunderground v.1.15,2013-09-13 04:50:00,